| time (UTC) | temp C | wind direction | speed KPH | gust KPH | rain 1hr cm | rain 24hr cm | rain mn cm | humidity % | barometer mb |
| 20260504081506 | 13 | 143 | 1.6 | 1.6 | 0.00 | 0.00 | 0.00 | 64 | 1010.2 |
| 20260504081001 | 13 | 135 | 0.0 | 1.6 | 0.00 | 0.00 | 0.00 | 62 | 1010.3 |
| 20260504080458 | 14 | 172 | 6.4 | 6.4 | 0.00 | 0.00 | 0.00 | 64 | 1010.2 |
| 20260504050311 | 14 | 137 | 1.6 | 3.2 | 0.00 | 0.00 | 0.00 | 62 | 1012.2 |
| 20260504045808 | 14 | 131 | 3.2 | 4.8 | 0.00 | 0.00 | 0.00 | 59 | 1012.3 |
| 20260504045308 | 14 | 132 | 0.0 | 1.6 | 0.00 | 0.00 | 0.00 | 60 | 1012.2 |
| 20260504044805 | 14 | 137 | 1.6 | 1.6 | 0.00 | 0.00 | 0.00 | 59 | 1012.2 |
| 20260504044303 | 14 | 123 | 1.6 | 3.2 | 0.00 | 0.00 | 0.00 | 59 | 1012.1 |
| 20260504043800 | 14 | 122 | 1.6 | 1.6 | 0.00 | 0.00 | 0.00 | 59 | 1012.3 |
| 20260504043257 | 14 | 117 | 0.0 | 1.6 | 0.00 | 0.00 | 0.00 | 60 | 1012.3 |
| 20260504042755 | 14 | 181 | 4.8 | 4.8 | 0.00 | 0.00 | 0.00 | 59 | 1012.3 |
| 20260504042251 | 14 | 140 | 4.8 | 6.4 | 0.00 | 0.00 | 0.00 | 60 | 1012.3 |
| 20260504041747 | 14 | 148 | 4.8 | 6.4 | 0.00 | 0.00 | 0.00 | 61 | 1012.2 |
| 20260504041243 | 13 | 166 | 4.8 | 6.4 | 0.00 | 0.00 | 0.00 | 60 | 1012.4 |
| 20260504040739 | 13 | 173 | 4.8 | 4.8 | 0.00 | 0.00 | 0.00 | 63 | 1012.5 |
| 20260504040237 | 13 | 138 | 0.0 | 1.6 | 0.00 | 0.00 | 0.00 | 62 | 1012.4 |
| 20260504035733 | 13 | 140 | 1.6 | 1.6 | 0.00 | 0.00 | 0.00 | 63 | 1012.5 |
| 20260504035231 | 13 | 139 | 1.6 | 1.6 | 0.00 | 0.00 | 0.00 | 62 | 1012.3 |
| 20260504034728 | 13 | 186 | 3.2 | 3.2 | 0.00 | 0.00 | 0.00 | 62 | 1012.4 |
| 20260504034225 | 13 | 167 | 6.4 | 6.4 | 0.00 | 0.00 | 0.00 | 62 | 1012.6 |
| 20260504033723 | 13 | 160 | 3.2 | 3.2 | 0.00 | 0.00 | 0.00 | 64 | 1012.6 |
| 20260504033220 | 13 | 175 | 4.8 | 4.8 | 0.00 | 0.00 | 0.00 | 65 | 1012.8 |
| 20260504032717 | 13 | 135 | 3.2 | 3.2 | 0.00 | 0.00 | 0.00 | 66 | 1012.8 |
| 20260504032214 | 12 | 146 | 3.2 | 3.2 | 0.00 | 0.00 | 0.00 | 67 | 1012.9 |
| 20260504031710 | 12 | 136 | 1.6 | 3.2 | 0.00 | 0.00 | 0.00 | 69 | 1012.8 |
| 20260504031208 | 12 | 167 | 3.2 | 3.2 | 0.00 | 0.00 | 0.00 | 70 | 1012.9 |
| 20260504030704 | 12 | 138 | 1.6 | 1.6 | 0.00 | 0.00 | 0.00 | 72 | 1013.2 |
| 20260504030201 | 12 | 186 | 1.6 | 3.2 | 0.00 | 0.00 | 0.00 | 68 | 1013.1 |
| 20260504025657 | 12 | 138 | 1.6 | 1.6 | 0.00 | 0.00 | 0.00 | 70 | 1013.1 |
| 20260504025154 | 12 | 145 | 1.6 | 3.2 | 0.00 | 0.00 | 0.00 | 72 | 1013.2 |
| 20260504024651 | 12 | 134 | 0.0 | 1.6 | 0.00 | 0.00 | 0.00 | 71 | 1013.3 |
| 20260504024147 | 12 | 184 | 3.2 | 3.2 | 0.00 | 0.00 | 0.00 | 69 | 1013.4 |
| 20260504023645 | 12 | 134 | 1.6 | 1.6 | 0.00 | 0.00 | 0.00 | 72 | 1013.4 |
| 20260504023141 | 12 | 156 | 1.6 | 1.6 | 0.00 | 0.00 | 0.00 | 73 | 1013.7 |
| 20260504022637 | 12 | 147 | 1.6 | 1.6 | 0.00 | 0.00 | 0.00 | 73 | 1013.6 |
| 20260504022133 | 12 | 155 | 1.6 | 1.6 | 0.00 | 0.00 | 0.00 | 74 | 1013.5 |
| 20260504021631 | 12 | 155 | 1.6 | 1.6 | 0.00 | 0.00 | 0.00 | 74 | 1013.5 |
| 20260504021127 | 12 | 173 | 1.6 | 1.6 | 0.00 | 0.00 | 0.00 | 75 | 1013.4 |
| 20260504020625 | 12 | 238 | 3.2 | 3.2 | 0.00 | 0.00 | 0.00 | 76 | 1013.2 |
| 20260504020120 | 12 | 147 | 1.6 | 1.6 | 0.00 | 0.00 | 0.00 | 74 | 1013.3 |
| 20260504015617 | 12 | 141 | 1.6 | 1.6 | 0.00 | 0.00 | 0.00 | 71 | 1013.5 |
| 20260504015113 | 12 | 153 | 1.6 | 1.6 | 0.00 | 0.00 | 0.00 | 70 | 1013.3 |
| 20260504014609 | 12 | 179 | 1.6 | 1.6 | 0.00 | 0.00 | 0.00 | 68 | 1013.4 |
| 20260504014107 | 12 | 162 | 1.6 | 1.6 | 0.00 | 0.00 | 0.00 | 67 | 1013.5 |
| 20260504013604 | 12 | 149 | 1.6 | 1.6 | 0.00 | 0.00 | 0.00 | 67 | 1013.4 |
| 20260504013101 | 13 | 148 | 1.6 | 1.6 | 0.00 | 0.00 | 0.00 | 67 | 1013.4 |
| 20260504012558 | 13 | 127 | 0.0 | 0.0 | 0.00 | 0.00 | 0.00 | 66 | 1013.6 |
| 20260504012056 | 13 | 134 | 0.0 | 1.6 | 0.00 | 0.00 | 0.00 | 66 | 1013.3 |
| 20260504011553 | 13 | 137 | 0.0 | 0.0 | 0.00 | 0.00 | 0.00 | 63 | 1013.3 |
| 20260504011049 | 14 | 119 | 0.0 | 0.0 | 0.00 | 0.00 | 0.00 | 59 | 1013.4 |
| 20260504010544 | 14 | 123 | 1.6 | 1.6 | 0.00 | 0.00 | 0.00 | 59 | 1013.1 |
| 20260504010041 | 15 | 101 | 0.0 | 0.0 | 0.00 | 0.00 | 0.00 | 56 | 1013.4 |
| 20260504005538 | 15 | 121 | 0.0 | 0.0 | 0.00 | 0.00 | 0.00 | 55 | 1013.1 |
| 20260504005035 | 15 | 126 | 1.6 | 1.6 | 0.00 | 0.00 | 0.00 | 55 | 1013.0 |
| 20260504004533 | 16 | 139 | 1.6 | 1.6 | 0.00 | 0.00 | 0.00 | 54 | 1013.1 |
| 20260504004030 | 16 | 180 | 3.2 | 3.2 | 0.00 | 0.00 | 0.00 | 52 | 1012.7 |
| 20260504003526 | 16 | 142 | 3.2 | 3.2 | 0.00 | 0.00 | 0.00 | 52 | 1012.6 |
| 20260504003023 | 16 | 184 | 4.8 | 6.4 | 0.00 | 0.00 | 0.00 | 48 | 1012.8 |
| 20260504002520 | 16 | 141 | 4.8 | 6.4 | 0.00 | 0.00 | 0.00 | 51 | 1012.2 |
| 20260504002017 | 16 | 128 | 3.2 | 4.8 | 0.00 | 0.00 | 0.00 | 50 | 1012.6 |
| 20260504001515 | 17 | 179 | 3.2 | 4.8 | 0.00 | 0.00 | 0.00 | 49 | 1012.6 |
| 20260504001011 | 17 | 144 | 3.2 | 4.8 | 0.00 | 0.00 | 0.00 | 47 | 1012.4 |
| 20260504000508 | 17 | 152 | 9.7 | 11.3 | 0.00 | 0.00 | 0.00 | 45 | 1012.5 |
| 20260504000005 | 17 | 186 | 11.3 | 12.9 | 0.00 | 0.00 | 0.00 | 44 | 1012.7 |
| 20260503235503 | 18 | 302 | 6.4 | 12.9 | 0.00 | 0.00 | 0.00 | 44 | 1012.6 |
| 20260503235000 | 18 | 233 | 3.2 | 4.8 | 0.00 | 0.00 | 0.00 | 44 | 1012.4 |
| 20260503234457 | 18 | 128 | 1.6 | 3.2 | 0.00 | 0.00 | 0.00 | 44 | 1012.9 |
| 20260503233955 | 18 | 177 | 11.3 | 16.1 | 0.00 | 0.00 | 0.00 | 43 | 1012.7 |
| 20260503233451 | 18 | 198 | 12.9 | 14.5 | 0.00 | 0.00 | 0.00 | 42 | 1012.7 |
| 20260503232948 | 19 | 240 | 8.0 | 12.9 | 0.00 | 0.00 | 0.00 | 43 | 1012.9 |
| 20260503232445 | 19 | 250 | 4.8 | 4.8 | 0.00 | 0.00 | 0.00 | 44 | 1012.6 |
| 20260503231943 | 19 | 129 | 3.2 | 3.2 | 0.00 | 0.00 | 0.00 | 42 | 1012.6 |
| 20260503231440 | 19 | 140 | 4.8 | 4.8 | 0.00 | 0.00 | 0.00 | 44 | 1012.7 |
| 20260503230936 | 19 | 190 | 9.7 | 14.5 | 0.00 | 0.00 | 0.00 | 43 | 1012.6 |
| 20260503230433 | 20 | 203 | 1.6 | 3.2 | 0.00 | 0.00 | 0.00 | 43 | 1012.9 |
| 20260503225931 | 20 | 117 | 3.2 | 3.2 | 0.00 | 0.00 | 0.00 | 43 | 1013.0 |
| 20260503225427 | 20 | 185 | 6.4 | 6.4 | 0.00 | 0.00 | 0.00 | 42 | 1013.2 |
| 20260503224923 | 20 | 177 | 8.0 | 11.3 | 0.00 | 0.00 | 0.00 | 40 | 1013.3 |
| 20260503224420 | 20 | 121 | 3.2 | 3.2 | 0.00 | 0.00 | 0.00 | 42 | 1013.2 |
| 20260503223918 | 20 | 127 | 9.7 | 17.7 | 0.00 | 0.00 | 0.00 | 40 | 1013.4 |
| 20260503223416 | 20 | 168 | 16.1 | 20.9 | 0.00 | 0.00 | 0.00 | 40 | 1013.6 |
| 20260503222916 | 20 | 112 | 3.2 | 4.8 | 0.00 | 0.00 | 0.00 | 43 | 1013.6 |
| 20260503222415 | 20 | 179 | 6.4 | 9.7 | 0.00 | 0.00 | 0.00 | 41 | 1013.7 |
| 20260503221913 | 20 | 167 | 6.4 | 9.7 | 0.00 | 0.00 | 0.00 | 40 | 1013.8 |
| 20260503221411 | 20 | 195 | 9.7 | 16.1 | 0.00 | 0.00 | 0.00 | 39 | 1013.9 |
| 20260503220907 | 20 | 227 | 8.0 | 14.5 | 0.00 | 0.00 | 0.00 | 39 | 1013.8 |
| 20260503220404 | 20 | 166 | 6.4 | 6.4 | 0.00 | 0.00 | 0.00 | 40 | 1014.0 |
| 20260503215900 | 20 | 233 | 11.3 | 14.5 | 0.00 | 0.00 | 0.00 | 40 | 1014.3 |
| 20260503215358 | 20 | 215 | 4.8 | 4.8 | 0.00 | 0.00 | 0.00 | 40 | 1014.2 |
| 20260503214855 | 21 | 236 | 3.2 | 3.2 | 0.00 | 0.00 | 0.00 | 40 | 1014.2 |
| 20260503214352 | 20 | 225 | 4.8 | 4.8 | 0.00 | 0.00 | 0.00 | 43 | 1014.3 |
| 20260503213850 | 20 | 242 | 9.7 | 12.9 | 0.00 | 0.00 | 0.00 | 39 | 1014.5 |
| 20260503213347 | 20 | 152 | 9.7 | 11.3 | 0.00 | 0.00 | 0.00 | 42 | 1014.5 |
| 20260503212844 | 20 | 252 | 6.4 | 9.7 | 0.00 | 0.00 | 0.00 | 42 | 1014.5 |
| 20260503212342 | 20 | 258 | 11.3 | 14.5 | 0.00 | 0.00 | 0.00 | 40 | 1014.4 |
| 20260503211839 | 20 | 311 | 6.4 | 11.3 | 0.00 | 0.00 | 0.00 | 41 | 1014.8 |
| 20260503211335 | 20 | 206 | 8.0 | 9.7 | 0.00 | 0.00 | 0.00 | 40 | 1015.0 |
| 20260503210831 | 20 | 175 | 6.4 | 9.7 | 0.00 | 0.00 | 0.00 | 39 | 1015.0 |
| 20260503210328 | 20 | 246 | 9.7 | 16.1 | 0.00 | 0.00 | 0.00 | 40 | 1015.1 |
| 20260503205823 | 20 | 330 | 3.2 | 3.2 | 0.00 | 0.00 | 0.00 | 40 | 1015.1 |
| 20260503205320 | 20 | 178 | 6.4 | 9.7 | 0.00 | 0.00 | 0.00 | 40 | 1015.3 |
| 20260503204817 | 20 | 190 | 9.7 | 16.1 | 0.00 | 0.00 | 0.00 | 38 | 1015.5 |
| 20260503204314 | 20 | 155 | 11.3 | 16.1 | 0.00 | 0.00 | 0.00 | 37 | 1015.4 |
| 20260503203811 | 20 | 142 | 8.0 | 9.7 | 0.00 | 0.00 | 0.00 | 39 | 1015.4 |
| 20260503203308 | 20 | 158 | 4.8 | 6.4 | 0.00 | 0.00 | 0.00 | 42 | 1015.7 |
| 20260503202805 | 20 | 239 | 6.4 | 9.7 | 0.00 | 0.00 | 0.00 | 39 | 1015.7 |
| 20260503202304 | 20 | 210 | 4.8 | 4.8 | 0.00 | 0.00 | 0.00 | 40 | 1015.7 |
| 20260503201801 | 20 | 161 | 6.4 | 9.7 | 0.00 | 0.00 | 0.00 | 39 | 1015.8 |
| 20260503201258 | 20 | 131 | 3.2 | 4.8 | 0.00 | 0.00 | 0.00 | 42 | 1016.2 |
| 20260503200755 | 19 | 203 | 8.0 | 11.3 | 0.00 | 0.00 | 0.00 | 40 | 1016.2 |
| 20260503200251 | 19 | 157 | 17.7 | 20.9 | 0.00 | 0.00 | 0.00 | 39 | 1016.1 |
| 20260503195749 | 20 | 203 | 3.2 | 6.4 | 0.00 | 0.00 | 0.00 | 42 | 1016.4 |
| 20260503195245 | 19 | 199 | 3.2 | 6.4 | 0.00 | 0.00 | 0.00 | 42 | 1016.5 |
| 20260503194743 | 19 | 158 | 4.8 | 6.4 | 0.00 | 0.00 | 0.00 | 41 | 1016.6 |
| 20260503194238 | 19 | 171 | 6.4 | 11.3 | 0.00 | 0.00 | 0.00 | 40 | 1016.6 |
| 20260503193734 | 20 | 165 | 14.5 | 16.1 | 0.00 | 0.00 | 0.00 | 39 | 1017.0 |
| 20260503193231 | 19 | 234 | 6.4 | 9.7 | 0.00 | 0.00 | 0.00 | 43 | 1017.0 |
| 20260503192726 | 18 | 259 | 6.4 | 12.9 | 0.00 | 0.00 | 0.00 | 41 | 1016.9 |
| 20260503192222 | 19 | 266 | 9.7 | 17.7 | 0.00 | 0.00 | 0.00 | 40 | 1017.0 |
| 20260503191719 | 19 | 252 | 4.8 | 9.7 | 0.00 | 0.00 | 0.00 | 44 | 1017.3 |
| 20260503191216 | 18 | 232 | 4.8 | 4.8 | 0.00 | 0.00 | 0.00 | 42 | 1017.5 |
| 20260503190713 | 18 | 226 | 6.4 | 12.9 | 0.00 | 0.00 | 0.00 | 43 | 1017.8 |
| 20260503190209 | 18 | 210 | 3.2 | 4.8 | 0.00 | 0.00 | 0.00 | 43 | 1017.7 |
| 20260503185707 | 18 | 152 | 3.2 | 3.2 | 0.00 | 0.00 | 0.00 | 42 | 1018.0 |
| 20260503185202 | 18 | 202 | 9.7 | 12.9 | 0.00 | 0.00 | 0.00 | 42 | 1017.8 |
| 20260503184657 | 18 | 134 | 6.4 | 11.3 | 0.00 | 0.00 | 0.00 | 41 | 1017.9 |
| 20260503184154 | 18 | 224 | 9.7 | 11.3 | 0.00 | 0.00 | 0.00 | 43 | 1018.1 |
| 20260503183649 | 18 | 205 | 3.2 | 6.4 | 0.00 | 0.00 | 0.00 | 41 | 1018.0 |
| 20260503183147 | 18 | 231 | 3.2 | 4.8 | 0.00 | 0.00 | 0.00 | 40 | 1018.3 |
| 20260503182645 | 18 | 170 | 6.4 | 12.9 | 0.00 | 0.00 | 0.00 | 42 | 1018.5 |
| 20260503182144 | 18 | 196 | 3.2 | 11.3 | 0.00 | 0.00 | 0.00 | 41 | 1018.5 |
| 20260503181640 | 17 | 165 | 3.2 | 3.2 | 0.00 | 0.00 | 0.00 | 45 | 1018.6 |
| 20260503181137 | 18 | 183 | 4.8 | 6.4 | 0.00 | 0.00 | 0.00 | 40 | 1018.6 |
| 20260503180634 | 17 | 125 | 6.4 | 11.3 | 0.00 | 0.00 | 0.00 | 44 | 1018.5 |
| 20260503180132 | 17 | 176 | 3.2 | 3.2 | 0.00 | 0.00 | 0.00 | 43 | 1018.8 |
| 20260503175629 | 17 | 234 | 6.4 | 11.3 | 0.00 | 0.00 | 0.00 | 42 | 1018.9 |
| 20260503175126 | 17 | 220 | 3.2 | 4.8 | 0.00 | 0.00 | 0.00 | 38 | 1019.0 |
| 20260503174622 | 17 | 264 | 3.2 | 4.8 | 0.00 | 0.00 | 0.00 | 42 | 1019.0 |
| 20260503174119 | 17 | 232 | 1.6 | 3.2 | 0.00 | 0.00 | 0.00 | 39 | 1019.1 |
| 20260503173614 | 17 | 146 | 8.0 | 11.3 | 0.00 | 0.00 | 0.00 | 41 | 1019.1 |
| 20260503173111 | 17 | 196 | 4.8 | 4.8 | 0.00 | 0.00 | 0.00 | 42 | 1019.2 |
| 20260503172608 | 17 | 233 | 3.2 | 4.8 | 0.00 | 0.00 | 0.00 | 41 | 1019.3 |
| 20260503172105 | 17 | 126 | 4.8 | 6.4 | 0.00 | 0.00 | 0.00 | 44 | 1019.4 |
| 20260503171601 | 17 | 168 | 8.0 | 9.7 | 0.00 | 0.00 | 0.00 | 38 | 1019.4 |
| 20260503171059 | 17 | 229 | 3.2 | 4.8 | 0.00 | 0.00 | 0.00 | 45 | 1019.7 |
| 20260503170555 | 17 | 121 | 3.2 | 3.2 | 0.00 | 0.00 | 0.00 | 45 | 1019.7 |
| 20260503150948 | 15 | 289 | 3.2 | 4.8 | 0.00 | 0.00 | 0.00 | 45 | 1020.9 |
| 20260503150444 | 15 | 253 | 6.4 | 6.4 | 0.00 | 0.00 | 0.00 | 49 | 1020.7 |
| 20260503131337 | 8 | 124 | 1.6 | 3.2 | 0.00 | 0.00 | 0.00 | 90 | 1020.8 |
| 20260503130835 | 7 | 137 | 1.6 | 3.2 | 0.00 | 0.00 | 0.00 | 99 | 1020.9 |
| 20260503130333 | 7 | 134 | 3.2 | 4.8 | 0.00 | 0.00 | 0.00 | 99 | 1020.7 |
| 20260503110726 | 0 | 133 | 0.0 | 1.6 | 0.00 | 0.00 | 0.00 | 99 | 1020.1 |
| 20260503110223 | 0 | 133 | 0.0 | 0.0 | 0.00 | 0.00 | 0.00 | 99 | 1020.3 |
| 20260503100149 | 0 | 133 | 0.0 | 1.6 | 0.00 | 0.00 | 0.00 | 99 | 1020.1 |
| 20260503090109 | 1 | 139 | 1.6 | 1.6 | 0.00 | 0.00 | 0.00 | 99 | 1020.1 |